User: anonymous   Login
Location: Narrabri
(30.3170°S, 149.7830°E)
Time: 13:57:41
(UTC+11:00)
Language:

Tiangong 2 - Orbit

View from above orbital plane
View from above orbital plane
View from above satellite
View from above satellite

Ground track
Ground track

The orbit data is extracted from the following two-line orbital elements,

1 41765U 16057A   17351.72209491  .00004710  00000-0  61554-4 0  9990
2 41765  42.7847 344.1022 0002245  52.8499 300.7024 15.59852707 71624
Epoch (UTC): 17 December 2017 17:19:49
Eccentricity: 0.0002245
inclination: 42.7847°
perigee height: 386 km
apogee height: 389 km
right ascension of ascending node: 344.1022°
argument of perigee: 52.8499°
revolutions per day: 15.59852707
mean anomaly at epoch: 300.7024°
orbit number at epoch: 7162

The dashed part of the orbit path shows where the satellite is in the earth's shadow,  

DLR